Temperature
12 12 12 13 13 13 13 14 14 14 14 15 15 15 15 15 15 15 14 14 14 14 14 14 14 15 15 15 15 15 15 15 15 15 15 15 14 14 14 14 14 14 14
12 12 12 13 13 13 13 13 14 14 14 14 14 14 14 14 14 14 14 14 14 14 14 14 14 14 14 15 15 15 14 14 14 14 14 14 14 14 14 14 14 14 14
12 12 12 12 12 13 13 13 13 14 14 14 14 14 14 14 14 14 14 14 14 14 14 14 14 14 14 14 14 14 14 14 14 14 14 14 14 14 14 14 14 14 14
11 12 12 12 12 12 13 13 13 13 13 13 14 14 14 14 14 14 14 14 14 14 14 14 14 14 14 14 14 14 14 14 14 14 14 14 14 14 14 14 14 14 14
11 11 12 12 12 12 12 12 13 13 13 13 13 13 13 13 14 14 13 13 13 13 13 14 14 14 14 14 14 14 13 13 13 13 13 13 14 14 14 14 14 14 14
10 11 11 11 12 12 12 12 12 12 12 13 13 13 13 13 13 13 13 13 13 13 13 13 14 14 14 14 14 13 13 13 13 13 13 13 13 13 14 14 14 14 14
10 10 11 11 11 11 12 12 12 12 12 12 12 12 13 13 13 13 13 13 13 13 13 13 13 14 14 14 13 13 13 13 13 13 13 13 13 13 13 14 14 14 14
9 10 10 10 11 11 11 11 11 11 11 12 12 12 12 12 12 12 12 13 13 13 13 13 13 13 13 13 13 13 13 13 13 13 13 13 13 13 13 13 13 13 13
9 9 10 10 10 10 11 11 11 11 11 11 11 11 12 12 12 12 12 12 12 13 13 13 13 13 13 13 13 13 13 13 13 13 13 13 13 13 13 13 13 13 13
8 9 9 9 10 10 10 10 10 10 10 11 11 11 11 11 11 11 12 11 12 12 12 12 13 13 13 13 13 12 12 12 13 13 13 13 12 12 13 13 13 13 13
8 8 9 9 9 9 9 9 9 10 10 10 10 10 11 10 11 11 11 11 11 12 12 12 12 12 12 12 12 12 12 12 12 12 12 12 12 12 12 12 12 12 12
7 8 8 8 8 9 9 9 9 9 9 9 10 10 10 10 10 10 10 11 11 11 11 11 11 12 12 12 12 12 12 12 12 12 12 12 12 12 12 12 12 12 12
6 7 7 7 8 8 8 8 8 8 8 9 9 9 9 9 9 9 10 10 10 10 11 11 11 11 11 11 11 11 11 11 12 12 12 12 12 12 12 12 12 12 12
6 6 7 7 7 7 7 8 8 8 8 8 8 8 8 9 9 9 9 9 9 10 10 10 10 10 10 10 11 11 11 11 11 11 11 12 12 12 12 12 12 12 12
5 6 6 6 6 7 7 7 7 7 7 7 7 7 8 8 8 8 8 8 8 9 9 9 9 9 10 10 10 10 10 10 10 11 11 11 11 12 12 11 12 12 12
5 5 5 6 6 6 6 6 6 6 7 7 7 7 7 7 7 7 7 8 8 8 8 8 8 9 9 9 9 9 9 10 10 10 11 11 11 11 11 11 11 11 11
4 4 5 5 5 5 5 6 6 6 6 6 6 6 6 6 7 7 7 7 7 7 7 8 8 8 8 8 9 9 9 9 9 10 10 10 10 11 11 11 11 11 11
4 4 4 4 5 5 5 5 5 5 5 5 5 6 6 6 6 6 6 6 6 7 7 7 7 7 7 8 8 8 8 9 9 9 9 10 10 10 10 10 10 10 10
3 3 4 4 4 4 4 4 5 5 5 5 5 5 5 5 5 5 5 6 6 6 6 6 6 6 7 7 7 7 8 8 8 9 9 9 9 10 10 10 10 10 10
3 3 3 3 3 3 4 4 4 4 4 4 4 4 5 5 5 5 5 5 5 5 5 5 5 6 6 6 6 7 7 8 8 8 9 9 9 9 9 9 10 10 10
2 2 2 3 3 3 3 3 3 4 3 4 4 4 4 4 4 4 4 4 4 5 5 5 5 5 5 5 5 6 7 7 8 8 8 8 8 9 9 9 9 9 9
2 2 2 2 2 2 2 2 2 3 3 3 3 3 3 3 3 3 3 4 4 4 4 4 4 4 4 5 5 5 5 6 7 7 7 8 8 8 8 8 8 9 9
1 1 1 1 2 2 2 2 2 2 2 2 2 3 3 3 3 3 3 3 3 3 3 3 3 3 4 4 4 4 5 5 5 6 6 7 7 7 8 8 8 8 8
1 1 1 1 1 1 1 1 1 1 1 1 1 2 2 2 2 2 2 2 3 3 3 3 3 3 3 3 4 4 4 4 4 5 5 6 6 7 7 7 7 7 7
1 1 1 1 1 1 1 1 1 1 1 1 1 1 1 1 2 2 2 2 2 2 2 2 2 2 2 3 3 3 3 4 4 4 4 5 5 6 6 6 7 7 7
1 1 1 0 1 1 0 0 0 0 0 0 0 1 1 1 1 1 1 1 1 2 2 2 2 2 2 2 2 3 3 3 3 4 4 4 4 5 5 6 6 6 6
Wind_Speed
4 6 6 9 10 11 12 12 12 13 13 12 12 12 12 12 12 13 13 13 12 12 12 13 14 14 15 15 15 15 15 15 15 16 15 15 15 15 15 15 15 15 17
4 5 6 9 10 11 11 12 12 12 12 12 12 11 11 11 12 12 12 12 11 12 12 12 14 14 14 14 14 14 13 13 14 14 14 14 14 15 15 15 15 14 16
6 6 6 9 10 11 11 11 12 12 11 11 11 11 11 11 11 11 11 11 11 11 12 12 12 12 13 13 12 12 11 11 10 11 11 11 13 14 15 15 15 16 16
6 6 6 9 10 10 10 11 11 11 11 11 11 11 11 12 11 10 10 10 11 11 11 11 11 11 11 11 11 10 10 10 9 9 9 10 12 14 14 14 15 15 15
7 7 8 9 10 10 10 10 11 11 11 12 11 11 11 12 11 10 10 10 10 10 10 10 10 10 10 10 9 9 8 8 8 8 9 11 12 13 13 13 14 14 14
8 8 8 10 10 10 10 10 10 11 11 11 11 11 11 11 11 11 11 10 10 10 9 9 10 10 9 8 8 7 7 7 7 7 8 11 11 12 12 12 13 12 12
8 10 9 10 10 10 10 9 10 10 11 11 11 11 10 10 10 10 10 10 10 10 9 9 9 8 8 7 7 7 7 7 7 7 9 10 11 11 11 11 11 11 11
9 10 10 11 11 10 10 9 9 10 10 10 10 11 10 10 10 9 10 10 9 9 8 8 8 7 7 6 6 6 6 6 6 7 8 9 10 10 10 10 10 10 10
10 10 10 10 10 10 9 9 9 9 10 10 10 10 10 9 9 9 9 9 9 8 8 8 8 7 6 5 5 5 6 7 6 6 7 8 9 8 8 8 9 9 9
9 9 9 9 10 9 8 8 8 9 10 10 11 10 9 8 8 8 8 9 9 8 7 8 8 7 6 5 4 4 5 5 6 7 7 7 8 7 7 7 7 7 8
7 7 9 9 9 9 7 7 8 8 9 10 10 10 9 7 7 7 7 8 8 8 7 6 6 6 5 4 3 3 4 4 6 6 6 6 7 6 6 6 6 6 7
5 6 7 8 8 8 7 6 6 6 7 8 8 8 6 6 7 7 7 7 8 8 7 5 5 4 4 3 3 3 2 3 5 5 5 6 6 5 5 5 6 6 6
3 4 5 7 8 8 7 6 6 6 5 6 6 6 7 7 7 7 6 6 6 6 5 4 3 3 2 3 2 2 2 4 5 4 4 5 5 4 4 5 5 5 5
4 4 4 7 7 7 7 6 6 6 5 5 5 6 7 5 5 5 4 4 4 4 4 3 3 4 3 3 2 2 2 3 3 3 3 4 3 3 3 3 4 4 4
3 4 3 6 6 7 6 6 6 6 6 5 5 6 7 5 4 5 4 4 4 4 4 4 4 3 3 3 3 2 2 2 2 3 3 4 3 2 2 2 3 3 3
2 2 2 3 5 6 5 5 5 6 6 5 5 5 6 6 5 5 4 4 4 4 4 4 4 3 3 2 3 3 2 2 2 2 3 4 4 4 3 2 2 3 4
1 1 2 2 5 6 5 5 6 6 6 6 5 4 6 6 5 5 4 4 5 5 5 4 4 4 3 3 2 3 3 2 2 1 1 3 4 5 5 4 3 3 4
0 1 1 3 4 5 5 5 5 6 6 5 5 4 5 5 5 5 4 4 5 5 5 4 2 2 2 2 2 2 2 1 2 1 1 3 4 5 5 5 4 4 4
1 1 1 2 2 3 4 4 5 5 5 5 5 4 4 5 5 5 4 5 5 5 4 4 2 2 2 2 3 3 2 2 2 2 2 3 4 5 5 6 6 5 5
2 2 2 2 2 3 3 3 3 4 4 5 4 4 4 4 5 5 4 5 5 3 3 3 3 2 2 2 3 4 4 3 3 2 3 2 3 5 5 5 5 5 5
2 2 2 2 1 1 1 1 1 1 2 3 4 5 5 4 4 3 4 4 4 2 3 3 3 2 2 2 2 4 4 4 3 2 2 1 1 2 4 5 5 5 4
3 3 3 2 1 0 1 0 1 1 1 2 4 5 6 4 4 3 3 3 3 2 3 3 3 2 2 1 1 2 2 2 2 2 1 2 2 1 2 4 5 5 4
3 3 2 2 1 1 1 1 1 1 1 2 2 2 5 6 4 4 4 3 3 2 2 2 2 2 2 2 2 1 1 2 3 2 3 2 1 1 2 3 3 4 4
3 3 3 2 2 1 1 1 0 1 1 2 2 2 4 5 5 3 3 4 3 3 2 2 3 3 2 3 3 2 2 2 2 2 2 3 3 2 2 2 2 3 5
2 3 3 3 2 2 1 1 1 1 1 1 2 3 3 4 4 4 3 3 2 3 3 3 3 3 2 3 3 3 3 3 3 3 4 4 4 2 2 2 3 3 5
2 3 3 3 3 2 2 2 1 2 2 2 3 3 3 2 3 4 4 3 3 3 3 3 3 3 3 4 3 3 3 3 3 3 4 5 5 4 3 2 2 3 4
Wind_Direction
47 19 25 38 40 42 43 46 46 48 50 53 54 53 53 55 59 58 57 57 57 58 63 65 69 68 69 70 69 71 73 74 76 75 72 74 76 78 78 75 75 77 77
46 40 49 46 45 46 48 48 47 48 51 53 55 55 55 55 59 60 58 57 56 57 60 64 69 69 69 70 70 71 73 76 79 78 75 74 77 79 77 74 77 81 79
49 55 62 52 51 51 51 50 49 47 49 52 54 56 55 56 59 61 60 57 59 59 60 64 69 70 68 68 69 68 68 73 77 78 74 79 83 83 80 79 82 82 81
53 66 66 61 56 54 53 52 51 49 48 52 53 55 55 57 58 60 61 58 59 59 61 64 69 73 71 68 67 65 63 65 70 67 68 76 81 85 83 82 84 83 83
56 67 69 66 61 58 55 53 51 49 49 50 53 55 55 58 57 59 61 60 61 60 62 64 69 72 73 70 67 63 58 57 57 64 70 77 80 84 84 82 84 84 82
56 58 68 66 62 59 55 53 53 51 50 50 51 53 56 56 58 57 57 57 59 60 62 65 66 69 71 70 66 58 49 42 44 60 70 83 86 85 84 85 82 83 84
53 50 55 56 56 56 54 51 53 53 51 51 50 52 54 55 57 57 56 56 56 56 57 60 63 63 65 67 64 53 45 32 50 62 72 83 90 89 87 88 88 85 85
52 48 49 43 47 48 48 50 52 53 51 52 51 50 51 53 56 57 56 54 55 51 52 57 59 61 62 65 56 41 35 27 56 65 80 85 95 93 91 87 91 91 87
53 48 41 40 38 37 42 43 50 54 53 52 51 49 50 51 52 56 53 50 51 52 52 55 55 54 55 56 45 31 25 23 44 57 78 89 99 97 95 91 89 93 92
53 46 37 33 32 26 29 39 46 54 53 53 52 48 48 50 51 53 48 47 48 49 51 54 53 50 47 43 31 14 3 24 53 56 69 89 98 95 98 99 96 92 97
51 42 34 27 25 23 27 38 45 52 51 55 53 48 47 44 46 49 47 48 48 47 49 49 49 52 48 30 0 351 5 42 60 63 72 89 98 96 99 101 101 99 96
48 39 30 24 20 20 24 32 39 48 49 51 50 43 32 35 38 44 46 48 45 45 44 43 42 54 45 10 325 315 19 52 75 72 84 95 97 101 104 109 107 105 103
67 47 31 21 18 20 16 21 28 35 40 48 41 33 29 35 41 41 40 39 40 46 40 22 18 359 6 2 352 13 7 53 77 76 96 106 104 102 104 117 116 114 112
59 47 32 21 18 18 16 12 26 23 26 32 27 33 32 27 27 27 24 19 18 26 18 350 329 350 359 354 360 17 21 62 81 95 114 121 119 120 121 124 129 128 129
47 39 32 26 18 14 13 10 20 16 19 21 31 32 32 22 14 8 7 11 5 13 359 337 334 343 339 351 349 354 28 60 103 119 124 148 155 154 154 146 157 156 154
35 41 29 32 20 13 12 10 12 14 18 23 28 28 32 25 13 4 357 360 5 360 340 328 336 340 336 346 337 347 359 25 77 114 152 166 171 179 182 184 187 183 179
22 50 29 30 23 18 13 10 11 14 18 15 16 28 29 22 14 5 353 355 355 346 339 334 343 348 348 348 330 333 339 359 18 39 174 175 181 193 194 197 205 206 200
194 113 64 27 26 18 6 7 11 13 14 9 9 20 21 12 5 4 355 347 348 347 343 339 347 345 332 329 320 314 315 321 307 295 252 205 187 189 195 198 206 216 214
192 163 108 71 44 17 0 9 14 9 12 8 10 12 9 6 5 4 349 343 347 346 340 335 342 327 320 327 324 317 306 276 262 257 254 231 198 188 185 193 202 214 220
196 167 129 87 53 14 5 17 15 13 2 359 1 1 360 2 3 1 347 343 345 340 338 336 328 328 322 311 318 319 301 272 252 238 240 229 205 197 190 189 192 208 219
204 180 139 109 70 31 32 34 16 358 342 348 354 358 355 355 352 355 346 341 341 334 325 327 324 316 322 329 334 326 304 268 239 230 224 225 208 201 191 187 191 192 204
209 179 145 122 99 33 67 12 266 282 298 328 344 352 351 342 347 342 343 329 328 324 321 325 336 318 313 324 328 319 307 299 289 280 253 231 221 190 197 203 196 190 195
205 180 163 146 161 213 86 52 349 353 341 353 354 344 338 333 334 336 329 325 319 320 299 313 312 308 295 294 305 282 275 259 314 268 253 250 256 257 246 229 204 200 195
197 170 162 159 180 178 118 105 320 321 308 310 314 311 319 320 327 315 312 315 315 306 289 297 313 307 282 276 282 281 277 287 266 287 277 273 266 258 251 252 223 208 202
186 165 167 172 183 170 162 184 218 271 294 301 307 307 310 321 322 313 302 305 301 301 296 295 304 303 286 274 275 284 287 290 261 258 271 277 286 272 269 264 233 214 209
197 164 168 181 179 179 195 216 220 241 268 280 291 292 301 306 311 311 297 295 290 286 284 286 283 283 285 279 272 271 273 272 258 257 260 264 271 277 273 263 246 221 212
Height
1532 1532 1532 1533 1533 1533 1534 1534 1535 1535 1535 1536 1536 1537 1537 1537 1537 1538 1538 1538 1539 1539 1539 1539 1540 1540 1540 1540 1541 1541 1541 1541 1541 1541 1542 1542 1542 1543 1543 1543 1543 1544 1544
1531 1531 1532 1533 1533 1534 1534 1535 1535 1535 1536 1536 1537 1537 1538 1538 1538 1539 1539 1539 1540 1540 1541 1541 1541 1541 1542 1542 1542 1542 1543 1543 1543 1543 1543 1544 1544 1544 1545 1545 1545 1546 1546
1530 1531 1532 1533 1533 1534 1534 1535 1535 1536 1536 1537 1537 1538 1538 1538 1539 1539 1540 1540 1540 1541 1541 1542 1542 1542 1543 1543 1544 1544 1544 1544 1545 1545 1545 1546 1546 1546 1546 1547 1547 1547 1548
1530 1531 1532 1532 1533 1534 1534 1535 1535 1536 1536 1537 1537 1538 1538 1539 1539 1540 1540 1540 1541 1541 1542 1543 1543 1543 1544 1544 1545 1545 1546 1546 1547 1547 1547 1547 1548 1548 1548 1548 1549 1549 1549
1530 1531 1531 1532 1533 1534 1534 1535 1535 1536 1536 1537 1537 1538 1538 1538 1539 1540 1540 1541 1541 1542 1542 1543 1544 1544 1545 1545 1546 1546 1547 1547 1548 1548 1548 1549 1549 1549 1549 1550 1550 1550 1551
1530 1531 1531 1532 1533 1533 1534 1535 1535 1536 1536 1537 1537 1537 1538 1538 1539 1540 1540 1541 1541 1542 1543 1543 1544 1544 1545 1546 1546 1547 1548 1548 1549 1549 1549 1550 1550 1550 1551 1551 1551 1552 1552
1530 1530 1531 1532 1533 1533 1534 1534 1535 1535 1536 1536 1537 1537 1538 1538 1539 1539 1540 1541 1541 1542 1542 1543 1544 1544 1545 1546 1547 1548 1548 1549 1549 1550 1550 1550 1551 1551 1551 1552 1552 1553 1553
1530 1530 1531 1531 1532 1533 1534 1534 1535 1535 1535 1536 1536 1537 1538 1538 1539 1539 1540 1540 1541 1542 1542 1543 1544 1544 1545 1546 1547 1548 1549 1549 1549 1550 1550 1550 1551 1552 1552 1552 1553 1553 1554
1530 1530 1530 1531 1532 1532 1533 1534 1534 1535 1535 1535 1536 1537 1537 1538 1538 1539 1539 1540 1540 1541 1542 1543 1543 1544 1545 1546 1547 1548 1548 1549 1549 1550 1550 1550 1551 1552 1552 1553 1553 1553 1554
1529 1529 1530 1530 1531 1532 1532 1533 1534 1534 1534 1535 1535 1536 1536 1537 1537 1538 1538 1539 1540 1540 1541 1542 1543 1544 1544 1545 1546 1547 1548 1549 1549 1549 1550 1550 1551 1551 1552 1552 1553 1553 1554
1529 1529 1529 1529 1530 1531 1531 1532 1533 1533 1533 1534 1534 1535 1535 1536 1536 1537 1537 1538 1539 1539 1540 1541 1542 1543 1544 1545 1546 1547 1547 1548 1548 1549 1549 1550 1550 1551 1551 1552 1553 1553 1553
1527 1528 1528 1528 1529 1529 1530 1531 1531 1532 1532 1532 1533 1534 1534 1534 1535 1535 1536 1537 1537 1538 1539 1540 1541 1541 1542 1543 1544 1545 1546 1547 1547 1548 1548 1549 1549 1550 1551 1551 1552 1553 1553
1527 1527 1528 1528 1528 1528 1528 1529 1530 1530 1531 1531 1532 1532 1533 1533 1533 1534 1534 1535 1536 1536 1537 1538 1539 1540 1541 1542 1543 1544 1545 1545 1546 1546 1547 1548 1548 1549 1550 1550 1551 1552 1552
1527 1527 1527 1527 1527 1527 1527 1528 1528 1529 1529 1530 1530 1531 1531 1531 1532 1532 1533 1534 1534 1535 1535 1536 1537 1538 1539 1540 1541 1542 1543 1544 1544 1545 1546 1546 1547 1548 1548 1549 1550 1551 1551
1525 1526 1526 1525 1525 1526 1526 1526 1527 1527 1528 1529 1529 1529 1530 1530 1530 1531 1531 1532 1533 1533 1534 1535 1536 1536 1537 1538 1539 1540 1541 1541 1542 1543 1544 1545 1545 1546 1547 1548 1549 1549 1550
1524 1524 1524 1524 1524 1524 1525 1525 1525 1526 1526 1527 1528 1528 1529 1529 1529 1529 1530 1530 1531 1531 1532 1533 1534 1535 1535 1536 1537 1538 1538 1539 1540 1541 1542 1542 1543 1544 1545 1546 1547 1548 1549
1522 1522 1522 1522 1523 1523 1523 1523 1524 1524 1525 1526 1526 1527 1527 1527 1527 1528 1528 1529 1529 1530 1530 1531 1532 1532 1533 1533 1534 1535 1536 1536 1537 1538 1539 1540 1541 1542 1543 1543 1545 1546 1547
1519 1520 1520 1521 1521 1521 1522 1522 1522 1523 1523 1524 1524 1525 1525 1525 1525 1526 1526 1526 1527 1527 1528 1529 1529 1530 1530 1531 1531 1532 1533 1533 1534 1535 1536 1537 1538 1539 1540 1541 1542 1543 1544
1517 1518 1518 1519 1519 1520 1520 1519 1520 1521 1521 1522 1522 1522 1523 1523 1523 1523 1524 1524 1525 1525 1526 1526 1527 1527 1527 1528 1528 1529 1529 1530 1531 1532 1534 1534 1535 1536 1537 1538 1539 1540 1541
1515 1515 1516 1516 1517 1518 1518 1517 1518 1519 1519 1519 1519 1520 1520 1521 1521 1521 1521 1522 1522 1523 1523 1523 1524 1525 1525 1525 1525 1525 1526 1527 1528 1529 1530 1531 1532 1533 1534 1535 1536 1537 1538
1512 1512 1513 1513 1514 1515 1514 1514 1515 1515 1516 1516 1517 1517 1518 1518 1518 1519 1519 1519 1520 1520 1520 1521 1521 1521 1522 1523 1523 1522 1523 1523 1524 1525 1527 1528 1529 1530 1531 1532 1533 1533 1535
1509 1509 1510 1510 1511 1512 1512 1513 1513 1513 1513 1514 1514 1514 1514 1515 1516 1516 1516 1516 1517 1517 1517 1518 1518 1519 1519 1520 1521 1520 1520 1521 1520 1522 1523 1525 1525 1526 1527 1528 1529 1530 1531
1506 1506 1507 1508 1509 1509 1509 1510 1511 1511 1511 1511 1511 1511 1511 1512 1513 1513 1513 1513 1514 1514 1514 1515 1515 1516 1516 1517 1519 1520 1519 1518 1518 1518 1519 1520 1521 1522 1524 1525 1525 1526 1527
1503 1503 1503 1505 1506 1506 1506 1507 1507 1507 1507 1508 1508 1508 1509 1509 1509 1510 1510 1510 1510 1511 1511 1512 1512 1513 1513 1514 1515 1516 1517 1517 1517 1515 1515 1516 1517 1518 1519 1520 1521 1522 1523
1500 1500 1500 1501 1502 1503 1504 1505 1505 1505 1505 1505 1506 1506 1506 1505 1506 1506 1507 1507 1507 1507 1508 1508 1509 1510 1510 1510 1511 1512 1513 1513 1514 1513 1512 1512 1512 1513 1514 1515 1516 1517 1519
1497 1496 1498 1498 1499 1500 1501 1502 1502 1502 1502 1502 1503 1502 1502 1502 1503 1503 1503 1503 1503 1504 1504 1504 1505 1505 1506 1506 1507 1507 1508 1509 1509 1509 1509 1508 1508 1508 1509 1510 1511 1512 1514